デニング-藤川彗星

72P/Denning-Fujikawa (2005)

English version
Home page
Total 6,336 html files since Dec. 4, 1995
Updated on April 9, 2005

---------------------------------------------------------------------

・ プロフィール

・ 軌道要素

Epoch 2005 July 9.0 TT = JDT 2453560.5
T 2005 June 19.9632 TT                                  MPCN
q   0.796708             (2000.0)            P               Q
n   0.1085995      Peri.  337.5916      +0.9676190      -0.2343145
a   4.350950       Node    36.3673      +0.2488747      +0.8235644
e   0.816889       Incl.    9.1080      +0.0421299      +0.5165640
P   9.08
From 34 observations 1881-1978, mean residual 1".6.  Nongravitational
     parameters A1 = +0.00, A2 = +0.0237.

・ 星図

・ 光度変化

        m1 = 15.5 + 5 logΔ + 25.0 log r

---------------------------------------------------------------------

軌道要素はMPCのEphemerides and Orbital Elementsに掲載されたものです。
星図は StellaNavigator Ver.2.0 for Windows (アストロアーツ 編著 / アスキー出版局刊) で作成したものです。
光度グラフはComet for Windowsで作成したものです。

---------------------------------------------------------------------

Copyright(C) 1995-2008 Seiichi Yoshida (comet@aerith.net). All rights reserved.